Texico, NM

2:42 AM MST on December 04, 2016 (GMT -0700)
Clovis Municipal

Weather History for KCVN - May, 2013

Change the Weather History Date:

Friday, May 3, 2013

  Actual Average Record
Temperature  
Mean Temperature 46 °F -  
Max Temperature 66 °F 73 °F 98 °F (1943)
Min Temperature 26 °F 44 °F 26 °F (2013)
Degree Days  
Heating Degree Days 19    
Moisture  
Dew Point 14 °F    
Average Humidity 30    
Maximum Humidity 51    
Minimum Humidity 12    
Precipitation  
Precipitation 0.00 in - - ()
Sea Level Pressure  
Sea Level Pressure 30.27 in    
Wind  
Wind Speed 9 mph (West)    
Max Wind Speed 23 mph    
Max Gust Speed 28 mph    
Visibility 10 miles    
Events      
Averages and records for this station are not official NWS values.
T = Trace of Precipitation, MM = Missing Value Source: NWS Daily Summary

Daily Weather History Graph

Daily Weather History Graph

Search for Another Location

Airport or City:

Trip Planner

Search our weather history database for the weather conditions in past years. The results will help you decide how hot, cold, wet, or windy it might be!

Date:

Astronomy

May. 03, 2013 Rise Set
Actual Time 6:00 AM MDT 7:38 PM MDT
Civil Twilight 5:33 AM MDT 8:05 PM MDT
Nautical Twilight 5:00 AM MDT 8:38 PM MDT
Astronomical Twilight 4:26 AM MDT 9:12 PM MDT
Moon 2:09 AM MDT (5/3) 1:50 PM MDT (5/3)
Length of Visible Light 14h 32m
Length of Day
13h 38m
Last Quarter, 36% of the Moon is Illuminated
May 3
Last Quarter
May 9
New
May 17
First Quarter
May 24
Full
May 31
Last Quarter

Hourly Weather History & Observations

Time (MDT) Temp. Windchill Dew Point Humidity Pressure Visibility Wind Dir Wind Speed Gust Speed Precip Events Conditions
12:15 AM 30.2 °F 25.4 °F 10.4 °F 44% 30.51 in 10.0 mi NNW 4.6 mph - N/A   Clear
12:35 AM 30.2 °F 24.3 °F 12.2 °F 47% 30.51 in 10.0 mi NNW 5.8 mph - N/A   Clear
12:55 AM 30.2 °F 24.3 °F 10.4 °F 44% 30.50 in 10.0 mi NW 5.8 mph - N/A   Clear
1:15 AM 28.4 °F 21.2 °F 10.4 °F 47% 30.50 in 10.0 mi West 6.9 mph - N/A   Clear
1:35 AM 28.4 °F 21.2 °F 10.4 °F 47% 30.49 in 10.0 mi WNW 6.9 mph - N/A   Clear
1:55 AM 28.4 °F 21.2 °F 8.6 °F 43% 30.48 in 10.0 mi WNW 6.9 mph - N/A   Clear
2:15 AM 28.4 °F 21.2 °F 10.4 °F 47% 30.48 in 10.0 mi WNW 6.9 mph - N/A   Clear
2:35 AM 28.4 °F 21.2 °F 10.4 °F 47% 30.47 in 10.0 mi WNW 6.9 mph - N/A   Clear
2:55 AM 26.6 °F 20.0 °F 8.6 °F 47% 30.46 in 10.0 mi WNW 5.8 mph - N/A   Clear
3:15 AM 26.6 °F 19.1 °F 10.4 °F 51% 30.46 in 10.0 mi WNW 6.9 mph - N/A   Clear
3:35 AM 26.6 °F 19.1 °F 8.6 °F 47% 30.45 in 10.0 mi West 6.9 mph - N/A   Clear
3:55 AM 28.4 °F 20.4 °F 10.4 °F 47% 30.45 in 10.0 mi West 8.1 mph - N/A   Clear
4:15 AM 28.4 °F 20.4 °F 10.4 °F 47% 30.45 in 10.0 mi WNW 8.1 mph - N/A   Clear
4:35 AM 28.4 °F 19.7 °F 10.4 °F 47% 30.44 in 10.0 mi WNW 9.2 mph - N/A   Clear
4:55 AM 28.4 °F 20.4 °F 10.4 °F 47% 30.43 in 10.0 mi West 8.1 mph - N/A   Clear
5:15 AM 26.6 °F 19.1 °F 10.4 °F 51% 30.43 in 10.0 mi WNW 6.9 mph - N/A   Clear
5:35 AM 26.6 °F 18.2 °F 10.4 °F 51% 30.43 in 10.0 mi WNW 8.1 mph - N/A   Clear
5:55 AM 26.6 °F 19.1 °F 10.4 °F 51% 30.43 in 10.0 mi WNW 6.9 mph - N/A   Clear
6:15 AM 26.6 °F 18.2 °F 10.4 °F 51% 30.43 in 10.0 mi West 8.1 mph - N/A   Clear
6:35 AM 28.4 °F 19.7 °F 12.2 °F 51% 30.43 in 10.0 mi West 9.2 mph - N/A   Clear
6:55 AM 30.2 °F 22.6 °F 14.0 °F 51% 30.43 in 10.0 mi West 8.1 mph - N/A   Clear
7:15 AM 35.6 °F 28.0 °F 15.8 °F 44% 30.43 in 10.0 mi West 10.4 mph - N/A   Clear
7:35 AM 39.2 °F 32.0 °F 15.8 °F 39% 30.42 in 10.0 mi West 11.5 mph - N/A   Clear
7:55 AM 41.0 °F 32.8 °F 15.8 °F 36% 30.42 in 10.0 mi West 16.1 mph - N/A   Clear
8:15 AM 42.8 °F 34.8 °F 17.6 °F 36% 30.41 in 10.0 mi West 17.3 mph - N/A   Clear
8:35 AM 44.6 °F 36.6 °F 17.6 °F 34% 30.40 in 10.0 mi West 19.6 mph 23.0 mph N/A   Clear
8:55 AM 46.4 °F 39.2 °F 17.6 °F 32% 30.39 in 10.0 mi West 18.4 mph - N/A   Clear
9:15 AM 48.2 °F - 17.6 °F 30% 30.38 in 10.0 mi West 23.0 mph - N/A   Clear
9:35 AM 48.2 °F - 17.6 °F 30% 30.37 in 10.0 mi West 19.6 mph - N/A   Clear
9:55 AM 50.0 °F - 17.6 °F 28% 30.36 in 10.0 mi West 18.4 mph - N/A   Clear
10:15 AM 51.8 °F - 17.6 °F 26% 30.35 in 10.0 mi WSW 17.3 mph - N/A   Clear
10:35 AM 51.8 °F - 17.6 °F 26% 30.35 in 10.0 mi WNW 15.0 mph 21.9 mph N/A   Clear
10:55 AM 53.6 °F - 17.6 °F 24% 30.33 in 10.0 mi WSW 17.3 mph 24.2 mph N/A   Clear
11:15 AM 55.4 °F - 17.6 °F 23% 30.32 in 10.0 mi West 12.7 mph 25.3 mph N/A   Clear
11:35 AM 55.4 °F - 19.4 °F 25% 30.31 in 10.0 mi West 13.8 mph 24.2 mph N/A   Clear
11:55 AM 57.2 °F - 17.6 °F 21% 30.29 in 10.0 mi West 16.1 mph 25.3 mph N/A   Clear
12:15 PM 57.2 °F - 17.6 °F 21% 30.28 in 10.0 mi West 11.5 mph 25.3 mph N/A   Clear
12:35 PM 59.0 °F - 19.4 °F 22% 30.26 in 10.0 mi West 16.1 mph 21.9 mph N/A   Clear
12:55 PM 60.8 °F - 17.6 °F 19% 30.25 in 10.0 mi West 12.7 mph 19.6 mph N/A   Clear
1:15 PM 60.8 °F - 17.6 °F 19% 30.23 in 10.0 mi West 10.4 mph 27.6 mph N/A   Clear
1:35 PM 60.8 °F - 17.6 °F 19% 30.22 in 10.0 mi West 16.1 mph 23.0 mph N/A   Clear
1:55 PM 62.6 °F - 17.6 °F 18% 30.21 in 10.0 mi West 8.1 mph 19.6 mph N/A   Clear
2:15 PM 62.6 °F - 17.6 °F 18% 30.19 in 10.0 mi West 12.7 mph 20.7 mph N/A   Clear
2:35 PM 64.4 °F - 17.6 °F 16% 30.18 in 10.0 mi West 9.2 mph 20.7 mph N/A   Clear
2:55 PM 64.4 °F - 15.8 °F 15% 30.17 in 10.0 mi West 6.9 mph 19.6 mph N/A   Clear
3:15 PM 64.4 °F - 15.8 °F 15% 30.15 in 10.0 mi WNW 10.4 mph 17.3 mph N/A   Clear
3:35 PM 64.4 °F - 15.8 °F 15% 30.13 in 10.0 mi West 12.7 mph 19.6 mph N/A   Clear
3:55 PM 66.2 °F - 15.8 °F 14% 30.12 in 10.0 mi WNW 9.2 mph - N/A   Clear
4:15 PM 66.2 °F - 14.0 °F 13% 30.12 in 10.0 mi WSW 10.4 mph 20.7 mph N/A   Clear
4:35 PM 66.2 °F - 14.0 °F 13% 30.11 in 10.0 mi NNW 4.6 mph - N/A   Clear
4:55 PM 66.2 °F - 14.0 °F 13% 30.11 in 10.0 mi WNW 8.1 mph - N/A   Clear
5:15 PM 66.2 °F - 12.2 °F 12% 30.10 in 10.0 mi WNW 5.8 mph - N/A   Clear
5:35 PM 66.2 °F - 12.2 °F 12% 30.10 in 10.0 mi West 11.5 mph 18.4 mph N/A   Clear
5:55 PM 64.4 °F - 12.2 °F 13% 30.09 in 10.0 mi West 13.8 mph - N/A   Clear
6:15 PM 64.4 °F - 12.2 °F 13% 30.08 in 10.0 mi West 11.5 mph 17.3 mph N/A   Clear
6:35 PM 64.4 °F - 12.2 °F 13% 30.08 in 10.0 mi West 11.5 mph - N/A   Clear
6:55 PM 64.4 °F - 12.2 °F 13% 30.08 in 10.0 mi West 8.1 mph - N/A   Clear
7:15 PM 62.6 °F - 10.4 °F 13% 30.08 in 10.0 mi WSW 9.2 mph - N/A   Clear
7:35 PM 57.2 °F - 14.0 °F 18% 30.08 in 10.0 mi SW 11.5 mph - N/A   Clear
7:55 PM 55.4 °F - 15.8 °F 21% 30.08 in 9.0 mi SW 10.4 mph - N/A   Clear
8:15 PM 51.8 °F - 15.8 °F 24% 30.09 in 10.0 mi SW 9.2 mph - N/A   Clear
8:35 PM 51.8 °F - 15.8 °F 24% 30.09 in 10.0 mi SW 9.2 mph - N/A   Clear
8:55 PM 48.2 °F - 14.0 °F 25% 30.09 in 10.0 mi SW 9.2 mph - N/A   Clear
9:15 PM 46.4 °F 41.5 °F 15.8 °F 29% 30.09 in 10.0 mi SW 10.4 mph - N/A   Clear
9:35 PM 46.4 °F 41.5 °F 12.2 °F 25% 30.10 in 10.0 mi SW 10.4 mph - N/A   Clear
9:55 PM 46.4 °F 41.9 °F 12.2 °F 25% 30.10 in 10.0 mi SW 9.2 mph - N/A   Clear
10:15 PM 46.4 °F 41.9 °F 14.0 °F 27% 30.10 in 10.0 mi WSW 9.2 mph - N/A   Clear
10:35 PM 48.2 °F - 14.0 °F 25% 30.09 in 10.0 mi WSW 8.1 mph - N/A   Clear
10:55 PM 46.4 °F 42.4 °F 12.2 °F 25% 30.08 in 10.0 mi WSW 8.1 mph - N/A   Clear
11:15 PM 48.2 °F - 12.2 °F 24% 30.08 in 10.0 mi West 8.1 mph - N/A   Clear
11:35 PM 44.6 °F 41.4 °F 10.4 °F 25% 30.08 in 10.0 mi West 5.8 mph - N/A   Clear
11:55 PM 44.6 °F 40.2 °F 10.4 °F 25% 30.08 in 10.0 mi West 8.1 mph - N/A   Clear